Retour au catalogue

SL-12 DEB

LostHEO
NORAD 27959·DEBRIS·🇷🇺 Russia

Lancé Sep 16, 1987 depuis Baikonur Cosmodrome

Loading…

Prochains Passages (prochaines 24 heures)

TLE

PériméSource: Space-Track

Époque: Dec 26, 2003, 05:35 UTC

1 27959U 87079AY  03360.23280923 -.00000028 +00000-0 +10000-3 0  9999
2 27959 065.6010 080.1924 5206229 070.9774 233.1802 04.11067039012335

Suivez SL-12 DEB en temps réel avec AllMySat

Download on the App Store